Location: ?????
(33.6267°N, 35.4675°E)
Time: 10:56:14
(UTC+00:00)

Lacrosse 4 Rocket - Pass Details

Date: 12 November 2019
Orbit: 543 x 616 km, 68.0° (Epoch: 11 December)

Event Time Altitude Azimuth Distance (km) Brightness Sun altitude
Rises 16:26:39 0° 214° (SW) 2,731 5.5 -22.9°
Reaches altitude 10° 16:28:54 10° 219° (SW) 1,830 4.5 -23.3°
Maximum altitude 16:32:53 52° 296° (WNW) 683 2.0 -24.2°
Enters shadow 16:33:41 44° 337° (NNW) 760 2.0 -24.3°
